Vertical_Velocity
-1 -4 5 0 0 -1 -2 -2 -3 -3 -0 2 2 1 -1 -3 2 -2 2 -1 -2 -2 -1 0 -3 -2 -0 -2 -1 -2 -2 -1 0 2 1 2 4 1 -0 -3 2 -0 2 -0
-1 -1 3 -0 -1 -0 1 -4 -4 -3 0 1 4 2 1 -3 -1 0 -1 1 -0 -1 -2 -0 -1 -3 1 0 -0 -1 -1 -0 -0 -1 -1 -1 1 0 -1 -1 4 -2 -1 3
-3 0 -0 1 -2 1 -2 -4 -2 -4 -2 -5 2 -2 1 -2 -3 0 -1 -1 -1 0 1 -2 0 0 1 -1 -1 -1 -1 -1 1 2 3 3 1 -1 1 2 2 -3 4 -2
-4 0 0 3 -0 0 3 1 -0 -1 2 4 -2 19 1 -2 -5 -3 -0 1 1 -3 -2 2 1 -1 -0 -2 -3 -2 -2 -1 -1 0 -3 1 -1 2 -4 2 -2 4 3 2
-1 1 -2 2 1 -1 -0 1 -4 2 2 0 -3 -0 -3 2 -1 -2 -4 -4 -3 -0 -1 -2 -1 -1 -1 1 1 1 -0 -1 0 -1 0 1 1 -3 1 3 -1 2 1 -1
-5 -2 -3 0 1 1 4 1 0 -4 -1 -1 1 3 6 2 3 2 -3 -3 -1 -1 -2 -0 -2 -2 1 0 -2 -2 -3 -3 -1 -0 -0 1 2 1 -0 -2 0 -0 -0 1
1 -1 -1 -3 -1 1 4 2 1 1 -2 1 1 -2 5 2 2 1 -0 0 -3 -2 -1 1 3 1 -0 -0 1 0 2 2 1 1 2 2 1 -0 0 10 5 8 7 4
-2 -6 0 2 -0 -1 2 5 5 1 -3 8 1 -3 8 2 -1 2 3 1 -2 -1 -2 -1 -2 -2 -1 -0 -1 1 2 1 1 0 2 -0 -0 -1 1 2 0 8 7 6
-0 2 -1 -1 -2 -0 -1 -2 4 2 0 -2 -0 2 2 -1 -2 -1 -2 1 2 4 3 4 1 2 1 -2 -0 -1 -1 -2 -2 0 -3 -1 -3 2 4 4 6 3 -3 1
3 -0 -0 -4 -2 -3 -0 -2 1 -1 -2 -1 -3 -0 6 1 -6 -5 -1 2 2 2 3 3 3 2 2 3 2 -0 2 4 -2 -4 0 -2 1 1 6 13 11 7 -1 -2
1 4 2 -3 -3 -1 1 -0 -2 4 -3 -1 1 2 4 4 1 -2 -3 -0 0 2 3 0 -1 -3 -3 0 0 1 1 4 1 -4 -2 -0 -1 8 3 5 -1 3 2 -2
6 4 -2 1 -9 -1 0 5 -3 -1 -1 -2 -2 3 -1 -2 -2 1 -3 -3 0 1 0 4 2 1 2 1 1 1 1 -0 -0 -1 0 -2 -1 3 0 -1 -2 -1 -1 1
-0 -2 0 -2 -3 -6 -3 -1 4 0 -2 -4 -3 15 -1 -3 -0 2 0 -2 -1 1 0 1 2 2 1 1 1 1 1 3 1 -0 -1 -2 -2 -2 3 1 4 -2 0 -1
-3 1 -1 1 9 7 -3 3 2 1 -4 7 -12 6 0 0 1 1 -0 -1 -1 0 -1 -0 -1 1 -0 0 -1 -2 -1 1 6 7 1 1 0 0 1 2 1 0 -2 -0
-3 -2 1 1 2 -1 -4 3 -2 -6 2 -11 16 -3 6 -3 -1 -2 -1 -0 -0 1 1 1 1 0 1 -0 -1 -2 1 -2 6 -3 -4 -2 -0 1 -0 -3 -2 -1 1 1
-1 0 1 -2 1 0 -5 0 1 -4 -3 -8 5 -8 3 -5 -0 -0 1 -1 -0 2 1 2 2 2 2 -1 -1 0 -0 1 2 1 1 -0 -0 -0 2 1 -3 -2 -3 -2
1 -0 -2 -1 1 -2 -8 2 -4 0 -1 4 -8 7 2 1 -4 -1 -1 -0 1 1 1 1 0 -0 -0 0 1 1 2 2 1 1 1 1 1 0 -1 -1 1 1 0 -1
2 -3 1 1 2 -21 10 4 2 -8 1 1 2 1 -2 -0 -1 -1 0 0 1 1 0 1 1 2 2 2 2 2 -1 -1 -1 -1 -0 1 0 -1 -2 -0 -1 -0 -2 0
3 -0 -1 -5 -1 3 -3 1 2 -8 11 -4 -2 -0 -8 -1 -2 1 1 1 0 1 0 -1 1 1 1 1 1 1 2 2 2 1 -1 -1 -2 -2 -1 0 -1 -1 -2 -1
2 1 -3 -1 -7 -10 10 2 0 -8 -4 3 -9 -0 1 -1 0 -1 -3 -1 -0 2 3 2 1 0 1 0 1 2 1 0 0 1 1 -0 0 1 1 1 1 -0 1 0
-1 -5 -2 -1 -6 -2 3 2 5 -15 33 -10 -0 -3 -0 -1 -3 2 0 -0 -0 -0 -0 1 0 -0 0 1 1 0 1 2 1 0 0 0 -0 -0 1 0 1 0 -0 -0
0 2 2 1 -6 -13 9 1 -6 8 -3 -3 1 -2 -1 -2 -3 -1 -0 0 0 -0 -1 0 -1 -1 -0 -1 0 -0 -1 -1 -1 -1 -1 -1 -1 -2 -1 1 0 2 2 2
-2 2 -3 -3 3 1 2 -0 1 -0 -4 -4 -1 -2 -2 -2 -1 -2 -3 -2 -1 -2 -1 -1 -1 -0 -0 0 -1 -1 -1 -1 -2 -2 -2 -1 0 0 1 0 -1 -0 -0 0
-11 9 -7 -3 4 3 -2 -1 -1 1 -4 -2 -2 -1 -2 -3 -2 -2 -2 -2 -1 -1 -1 -1 -1 -1 -2 -1 -1 -1 -1 -1 -1 1 1 -0 -0 -1 -2 -1 -3 -3 -1 -1
2 12 10 -3 -1 1 2 -1 -3 -3 -1 -2 -1 -1 1 -2 0 -0 -2 -1 -1 -1 -1 -0 0 -1 -2 -1 -1 -2 -1 -1 -1 -1 -1 -1 -2 -2 -2 -0 -2 -1 3 0
5 6 -5 5 11 -0 2 -3 -3 -1 0 -0 -1 -0 1 1 0 1 1 1 -0 -0 -0 -1 -1 -1 0 -0 -0 -0 -1 0 1 0 -0 -1 -1 -1 -1 -4 -2 9 -11 -8
Height
5766 5765 5765 5762 5762 5762 5764 5765 5768 5769 5770 5771 5771 5770 5770 5769 5769 5767 5767 5767 5767 5767 5768 5769 5770 5771 5771 5772 5772 5773 5774 5775 5776 5777 5780 5782 5781 5783 5783 5787 5788 5790 5792 5792
5764 5763 5763 5761 5760 5760 5761 5763 5766 5767 5769 5770 5771 5770 5770 5769 5769 5769 5767 5768 5769 5769 5769 5770 5771 5772 5772 5773 5774 5775 5776 5777 5777 5777 5778 5779 5780 5781 5782 5783 5786 5788 5789 5787
5760 5760 5760 5759 5759 5759 5760 5763 5764 5767 5768 5767 5767 5769 5769 5769 5769 5769 5768 5768 5769 5769 5770 5771 5771 5772 5773 5774 5775 5776 5776 5776 5777 5778 5778 5778 5779 5780 5781 5780 5783 5784 5784 5784
5756 5757 5758 5758 5758 5758 5759 5760 5761 5763 5767 5768 5767 5772 5769 5768 5768 5768 5769 5769 5769 5769 5770 5771 5772 5772 5773 5773 5774 5775 5775 5775 5775 5776 5777 5778 5778 5778 5779 5778 5778 5778 5778 5777
5753 5753 5755 5755 5757 5757 5758 5758 5758 5760 5763 5766 5767 5769 5768 5768 5767 5767 5766 5768 5769 5769 5769 5769 5770 5770 5771 5772 5772 5773 5773 5773 5773 5774 5774 5774 5774 5774 5774 5774 5772 5771 5770 5768
5748 5748 5751 5752 5753 5755 5755 5755 5757 5758 5760 5762 5765 5767 5768 5766 5767 5767 5766 5766 5766 5766 5768 5768 5768 5768 5769 5769 5769 5769 5770 5769 5769 5769 5769 5769 5768 5768 5768 5767 5765 5764 5763 5762
5744 5744 5746 5748 5749 5751 5753 5754 5757 5760 5759 5760 5760 5762 5765 5765 5764 5764 5764 5765 5764 5763 5764 5765 5766 5766 5766 5766 5766 5766 5766 5766 5765 5765 5765 5765 5764 5764 5762 5761 5759 5757 5756 5754
5738 5739 5741 5744 5745 5747 5749 5752 5753 5754 5756 5759 5757 5759 5762 5761 5761 5762 5762 5762 5762 5761 5761 5761 5762 5762 5762 5761 5762 5762 5763 5763 5763 5762 5761 5761 5760 5758 5756 5754 5752 5750 5748 5746
5733 5734 5735 5737 5738 5741 5743 5745 5749 5749 5750 5752 5753 5755 5756 5756 5756 5756 5756 5756 5757 5757 5758 5758 5758 5758 5757 5756 5756 5757 5756 5757 5757 5757 5757 5756 5755 5753 5750 5748 5745 5743 5741 5738
5727 5728 5729 5731 5733 5735 5738 5741 5743 5744 5746 5748 5749 5750 5752 5752 5750 5750 5750 5750 5751 5752 5753 5754 5754 5754 5753 5752 5752 5752 5751 5751 5750 5752 5752 5751 5749 5747 5742 5739 5737 5734 5731 5729
5719 5722 5724 5725 5726 5732 5733 5734 5737 5740 5741 5743 5744 5747 5747 5747 5746 5744 5744 5744 5745 5746 5747 5748 5748 5748 5747 5747 5747 5747 5747 5747 5747 5747 5746 5745 5742 5738 5734 5731 5728 5725 5723 5720
5713 5714 5716 5719 5720 5724 5727 5731 5731 5734 5737 5736 5738 5741 5741 5742 5740 5739 5737 5738 5738 5739 5740 5741 5742 5743 5743 5743 5743 5742 5742 5742 5742 5741 5739 5737 5735 5731 5727 5724 5721 5718 5714 5710
5704 5705 5709 5712 5714 5716 5718 5722 5725 5728 5729 5731 5734 5736 5735 5736 5735 5734 5733 5732 5733 5733 5734 5734 5735 5736 5736 5736 5736 5736 5736 5736 5735 5733 5731 5728 5726 5722 5718 5715 5712 5708 5704 5700
5695 5698 5702 5706 5710 5713 5713 5717 5720 5722 5723 5727 5727 5729 5729 5730 5729 5728 5728 5728 5727 5728 5727 5727 5727 5727 5728 5728 5728 5729 5729 5729 5727 5725 5723 5720 5717 5714 5710 5707 5703 5698 5693 5688
5687 5689 5696 5700 5702 5704 5706 5710 5713 5715 5718 5717 5721 5721 5724 5723 5722 5721 5720 5720 5721 5721 5721 5721 5720 5720 5720 5720 5720 5720 5720 5719 5717 5716 5713 5710 5707 5704 5701 5697 5692 5686 5681 5675
5680 5685 5690 5692 5695 5697 5699 5703 5705 5707 5710 5711 5714 5715 5716 5715 5714 5715 5715 5714 5714 5714 5714 5714 5714 5713 5713 5713 5713 5712 5711 5710 5708 5706 5703 5701 5698 5694 5690 5684 5679 5674 5669 5664
5673 5679 5682 5686 5689 5691 5690 5697 5699 5702 5704 5706 5706 5709 5708 5707 5706 5706 5707 5707 5707 5707 5707 5707 5707 5706 5706 5706 5705 5704 5702 5701 5698 5696 5693 5690 5687 5682 5678 5673 5668 5662 5657 5651
5665 5673 5675 5679 5682 5681 5689 5692 5694 5696 5698 5699 5699 5700 5699 5699 5698 5698 5698 5698 5698 5698 5698 5698 5699 5698 5698 5697 5696 5695 5693 5691 5689 5686 5683 5679 5675 5670 5666 5661 5655 5650 5643 5636
5659 5664 5668 5670 5674 5680 5681 5686 5689 5690 5692 5691 5694 5692 5689 5690 5688 5689 5689 5689 5689 5689 5689 5689 5689 5690 5690 5689 5688 5686 5685 5683 5680 5677 5672 5668 5664 5659 5654 5648 5641 5635 5628 5621
5652 5658 5661 5665 5667 5670 5678 5680 5682 5683 5685 5685 5684 5683 5682 5682 5681 5680 5680 5680 5680 5680 5680 5681 5681 5681 5681 5680 5679 5678 5675 5673 5669 5666 5661 5657 5651 5646 5640 5634 5628 5621 5613 5606
5646 5651 5653 5659 5660 5666 5670 5673 5674 5676 5685 5675 5677 5675 5674 5673 5672 5672 5671 5671 5672 5672 5673 5673 5672 5672 5672 5671 5669 5667 5665 5662 5658 5653 5648 5643 5638 5632 5626 5620 5614 5606 5599 5591
5641 5647 5649 5653 5654 5660 5664 5665 5666 5670 5669 5669 5668 5667 5666 5664 5664 5664 5663 5663 5664 5664 5665 5665 5665 5665 5664 5663 5661 5658 5655 5651 5646 5641 5636 5631 5625 5619 5613 5606 5599 5592 5585 5578
5631 5639 5642 5647 5650 5655 5655 5657 5658 5659 5660 5660 5660 5660 5659 5658 5657 5657 5657 5657 5657 5658 5658 5658 5657 5657 5655 5653 5650 5646 5642 5638 5633 5628 5623 5617 5611 5604 5597 5590 5583 5576 5569 5562
5624 5630 5634 5638 5644 5647 5648 5648 5649 5650 5651 5652 5653 5652 5652 5652 5651 5651 5651 5651 5651 5651 5651 5650 5649 5648 5645 5642 5638 5633 5629 5625 5620 5614 5609 5602 5595 5588 5581 5574 5567 5560 5552 5545
5616 5622 5626 5630 5635 5639 5639 5639 5640 5641 5643 5645 5645 5645 5645 5645 5645 5646 5645 5645 5644 5643 5642 5641 5639 5636 5632 5629 5624 5620 5615 5610 5605 5599 5592 5586 5579 5572 5565 5558 5550 5543 5536 5527
5607 5614 5618 5624 5629 5628 5630 5630 5630 5632 5634 5635 5637 5637 5638 5638 5638 5638 5637 5636 5634 5633 5631 5629 5626 5623 5619 5615 5610 5606 5601 5595 5589 5583 5576 5570 5563 5556 5548 5540 5534 5525 5515 5507